New Philadelphia, OH

3:21 AM EST on December 16, 2019 (GMT -0500)
Clever

Weather History for KPHD - November, 2019

Change the Weather History Date:

Thursday, November 14, 2019

  Actual Average Record
Temperature  
Mean Temperature 34 °F 44 °F  
Max Temperature 41 °F 54 °F 73 °F (1989)
Min Temperature 26 °F 34 °F 11 °F (1986)
Degree Days  
Heating Degree Days 32 21  
Month to date heating degree days 399 269  
Since 1 July heating degree days 684 768  
Cooling Degree Days 0 0  
Month to date cooling degree days 0 0  
Year to date cooling degree days 962 697  
Moisture  
Dew Point 20 °F    
Average Humidity 63    
Maximum Humidity 81    
Minimum Humidity 42    
Precipitation  
Precipitation 0.00 in 0.10 in 1.18 in (1972)
Month to date precipitation 0.87 1.39  
Year to date precipitation 39.49 34.35  
Sea Level Pressure  
Sea Level Pressure 30.27 in    
Wind  
Wind Speed 3 mph ()    
Max Wind Speed 10 mph    
Max Gust Speed 16 mph    
Visibility 10.0 miles    
Events      
T = Trace of Precipitation, MM = Missing Value Source: Averaged Metar Reports

Daily Weather History Graph

Daily Weather History Graph

Search for Another Location

Airport or City:

Astronomy

Nov. 14, 2019 Rise Set
Actual Time 7:10 AM EST 5:09 PM EST
Civil Twilight 6:41 AM EST 5:38 PM EST
Nautical Twilight 6:08 AM EST 6:11 PM EST
Astronomical Twilight 5:36 AM EST 6:43 PM EST
Moon 6:53 PM EST (11/14) 9:04 AM EST (11/14)
Length of Visible Light 10h 57m
Length of Day
9h 58m
Waning Gibbous, 95% of the Moon is Illuminated
Nov 14
Waning Gibbous
Nov 19
Last Quarter
Nov 26
New
Dec 4
First Quarter
Dec 12
Full

Hourly Weather History & Observations

Time (EST) Temp. Windchill Dew Point Humidity Pressure Visibility Wind Dir Wind Speed Gust Speed Precip Events Conditions
12:53 AM 27.0 °F 23.0 °F 16.0 °F 63% 30.23 in 10.0 mi SSE 3.5 mph - N/A   Clear
1:53 AM 27.0 °F - 17.1 °F 66% 30.24 in 10.0 mi Calm Calm - N/A   Mostly Cloudy
2:53 AM 26.1 °F 21.9 °F 18.0 °F 71% 30.24 in 10.0 mi SE 3.5 mph - N/A   Mostly Cloudy
3:53 AM 27.0 °F 23.0 °F 17.1 °F 66% 30.24 in 10.0 mi SSE 3.5 mph - N/A   Clear
4:53 AM 27.0 °F 21.6 °F 18.0 °F 69% 30.24 in 10.0 mi SSE 4.6 mph - N/A   Overcast
5:53 AM 27.0 °F 19.5 °F 18.0 °F 69% 30.24 in 10.0 mi SSE 6.9 mph - N/A   Overcast
6:53 AM 28.0 °F 24.2 °F 18.0 °F 66% 30.24 in 10.0 mi SE 3.5 mph - N/A   Overcast
7:53 AM 28.9 °F 25.2 °F 18.0 °F 64% 30.26 in 10.0 mi South 3.5 mph - N/A   Mostly Cloudy
8:53 AM 28.9 °F 25.2 °F 19.9 °F 69% 30.27 in 10.0 mi SSE 3.5 mph - N/A   Overcast
9:53 AM 32.0 °F 24.8 °F 21.0 °F 64% 30.28 in 10.0 mi SSW 8.1 mph - N/A   Partly Cloudy
10:53 AM 34.0 °F 27.2 °F 21.9 °F 61% 30.28 in 10.0 mi South 8.1 mph - N/A   Overcast
11:53 AM 37.9 °F 34.4 °F 21.0 °F 51% 30.26 in 10.0 mi Variable 4.6 mph - N/A   Overcast
12:53 PM 37.0 °F 31.6 °F 21.9 °F 54% 30.25 in 10.0 mi West 6.9 mph - N/A   Scattered Clouds
1:53 PM 39.9 °F 34.5 °F 21.0 °F 47% 30.24 in 10.0 mi SW 8.1 mph - N/A   Mostly Cloudy
2:53 PM 39.9 °F 34.5 °F 19.0 °F 43% 30.24 in 10.0 mi SSW 8.1 mph - N/A   Overcast
3:53 PM 41.0 °F 36.4 °F 19.9 °F 43% 30.25 in 10.0 mi Variable 6.9 mph - N/A   Mostly Cloudy
4:53 PM 39.0 °F 36.8 °F 19.9 °F 46% 30.27 in 10.0 mi WSW 3.5 mph - N/A   Clear
5:53 PM 36.0 °F - 19.9 °F 52% 30.28 in 10.0 mi Calm Calm - N/A   Clear
6:53 PM 30.9 °F - 21.9 °F 69% 30.30 in 10.0 mi Calm Calm - N/A   Clear
7:53 PM 30.0 °F - 23.0 °F 75% 30.30 in 10.0 mi Calm Calm - N/A   Mostly Cloudy
8:53 PM 30.0 °F - 23.0 °F 75% 30.31 in 10.0 mi Calm Calm - N/A   Mostly Cloudy
9:53 PM 28.9 °F - 23.0 °F 78% 30.32 in 10.0 mi Calm Calm - N/A   Partly Cloudy
10:53 PM 27.0 °F - 21.9 °F 81% 30.31 in 10.0 mi Calm Calm - N/A   Clear
11:53 PM 26.1 °F - 21.0 °F 81% 30.31 in 10.0 mi Calm Calm - N/A   Clear